FW0527 Weather Reports


Display with metric or nautical units.
time (UTC)temp
F
wind
direction
speed
MPH
gust
MPH
rain 1hr
in
rain 24hr
in
rain mn
in
humidity
%
barometer
mb
20260504060104 45 281 0.0 5.0 0.00 0.00 0.00 87 1011.9
20260504044602 46 302 1.0 8.0 0.00 0.00 0.00 88 1012.3
20260504043055 46 271 0.0 7.0 0.00 0.00 0.00 88 1012.1
20260504041551 47 309 0.0 8.0 0.00 0.00 0.00 87 1011.8
20260504034558 47 313 0.0 9.0 0.00 0.00 0.00 87 1012.0
20260504033114 47 313 0.0 5.0 0.00 0.00 0.00 87 1011.9
20260504031543 48 311 2.0 11.0 0.00 0.00 0.00 86 1011.7
20260504030046 48 312 0.0 5.0 0.00 0.00 0.00 85 1011.3
20260504024541 48 308 1.0 9.0 0.00 0.00 0.00 84 1011.2
20260504023055 49 338 0.0 15.0 0.00 0.00 0.00 82 1011.4
20260504021536 50 307 1.0 9.0 0.00 0.00 0.00 80 1011.2
20260504020038 50 274 1.0 11.0 0.00 0.00 0.00 78 1011.0
20260504014544 52 248 2.0 8.0 0.00 0.00 0.00 76 1010.8
20260504013043 54 312 0.0 1.0 0.00 0.00 0.00 75 1010.4
20260504011534 55 346 0.0 1.0 0.00 0.00 0.00 73 1010.4
20260504010036 56 307 0.0 1.0 0.00 0.00 0.00 72 1010.2
20260504004536 56 298 0.0 2.0 0.00 0.00 0.00 70 1010.0
20260504003036 57 294 0.0 8.0 0.00 0.00 0.00 69 1009.8
20260504001532 58 309 0.0 8.0 0.00 0.00 0.00 68 1009.8
20260504000031 59 291 0.0 5.0 0.00 0.00 0.00 67 1009.8
20260503234539 59 267 0.0 8.0 0.00 0.00 0.00 68 1009.3
20260503233030 59 273 0.0 3.0 0.00 0.00 0.00 67 1009.5
20260503231533 59 323 0.0 2.0 0.00 0.00 0.00 67 1009.6
20260503230039 60 297 0.0 3.0 0.00 0.00 0.00 66 1009.6
20260503224528 60 316 0.0 0.0 0.00 0.00 0.00 65 1009.6
20260503223029 61 332 1.0 10.0 0.00 0.00 0.00 65 1009.5
20260503221528 62 312 0.0 10.0 0.00 0.00 0.00 62 1009.6
20260503220028 64 269 0.0 1.0 0.00 0.00 0.00 61 1009.7
20260503214528 64 300 0.0 1.0 0.00 0.00 0.00 60 1009.6
20260503213026 63 303 0.0 0.0 0.00 0.00 0.00 62 1009.9
20260503211525 63 286 0.0 2.0 0.00 0.00 0.00 63 1009.8
20260503210027 63 323 0.0 0.0 0.00 0.00 0.00 62 1009.8
20260503204533 64 360 0.0 2.0 0.00 0.00 0.00 61 1010.0
20260503203025 65 355 0.0 9.0 0.00 0.00 0.00 61 1010.1
20260503201523 66 306 0.0 8.0 0.00 0.00 0.00 60 1010.1
20260503200026 68 333 0.0 11.0 0.00 0.00 0.00 58 1010.0
20260503194525 69 332 0.0 15.0 0.00 0.00 0.00 56 1009.9
20260503193032 71 247 0.0 6.0 0.00 0.00 0.00 53 1009.9
20260503191522 72 261 0.0 1.0 0.00 0.00 0.00 49 1009.8
20260503190024 73 327 0.0 1.0 0.00 0.00 0.00 50 1009.8
20260503184533 73 279 0.0 0.0 0.00 0.00 0.00 43 1009.8
20260503183019 72 234 0.0 0.0 0.00 0.00 0.00 51 1009.8
20260503181516 71 344 0.0 0.0 0.00 0.00 0.00 49 1009.8
20260503180023 71 313 0.0 6.0 0.00 0.00 0.00 53 1009.8
20260503174514 71 306 0.0 0.0 0.00 0.00 0.00 53 1009.9
20260503173015 70 339 0.0 5.0 0.00 0.00 0.00 52 1009.9
20260503171509 69 225 0.0 0.0 0.00 0.00 0.00 52 1009.9
20260503081551 53 99 0.0 0.0 0.00 0.00 0.00 46 1010.4
20260503071547 53 98 0.0 0.0 0.00 0.00 0.00 44 1011.2